24h Messdaten per 22.07.2019 um 11:38:35

Datum Zeit Luftdruck Temp Balkon Feuchte Balkon Temp Strasse Feuchte Strasse Wind km/h Wind Boe Wind aus (Grad) Regen l/15min Licht Lux Sonne h/Monat
22.07.19 11:38:35 1015 25.9 31
22.07.19 11:33:35 1015 25.4 31
22.07.19 11:28:35 1015 25.4 30
22.07.19 11:23:36 1015 26.7 20 25.5 31
22.07.19 11:18:36 1015 28.2 20 25.2 31
22.07.19 11:13:36 1015 26.4 20 25.2 30
22.07.19 11:08:36 1015 29.3 20 25.2 31
22.07.19 11:03:36 1015 27.5 20 25.1 31
22.07.19 10:58:36 1015 26.1 20 24.6 32
22.07.19 10:53:36 1015 27.9 20 24.5 32
22.07.19 10:48:36 1015 28.6 20 24.2 32
22.07.19 10:43:36 1015 26.4 20 24.2 32 0.0
22.07.19 10:38:36 1015 26.5 20 24.2 31 0.0
22.07.19 10:33:36 1015 25.2 20 24.2 32 0.0
22.07.19 10:28:36 1015 25.1 20 24.0 32 0.0
22.07.19 10:23:36 1014 23.8 31 0.0
22.07.19 10:18:36 1014 23.9 32 0.0
22.07.19 10:13:36 1014 23.7 33 0.0
22.07.19 10:08:36 1014 26.3 20 23.6 33 0.0
22.07.19 10:03:36 1014 23.5 20 23.2 33 0.0
22.07.19 09:58:36 1014 25.5 20 23.2 34 0.0
22.07.19 09:53:36 1014 25.5 20 23.1 34 0.0
22.07.19 09:48:36 1014 26.0 20 22.9 34 0.0
22.07.19 09:43:36 1014 26.9 20 22.8 35 4.0 3.2 337.5 0.0
22.07.19 09:38:37 1014 27.6 20 22.7 35 4.0 3.2 337.5 0.0
22.07.19 09:33:36 1014 27.6 20 22.7 36 4.3 4.3 45 0.0
22.07.19 09:28:36 1014 28.2 20 22.6 38 5.4 5.8 112.5 0.0
22.07.19 09:23:36 1014 28.9 20 22.4 39 5.4 5.8 112.5 0.0
22.07.19 09:18:36 1014 24.8 20 22.2 39 5.0 8.3 315 0.0
22.07.19 09:13:36 1014 24.2 20 22.1 39 3.2 4.3 225 0.0
22.07.19 09:08:37 1014 23.1 20 22.1 40 3.2 4.3 225 0.0
22.07.19 09:03:37 1014 23.0 20 22.0 41 3.2 6.8 135 0.0
22.07.19 08:58:36 1014 22.7 20 21.9 41 3.2 5.4 135 0.0
22.07.19 08:53:36 1014 24.2 20 21.7 42 3.2 5.4 135 0.0
22.07.19 08:48:36 1014 23.4 20 21.4 43 3.2 6.1 45 0.0
22.07.19 08:43:36 1014 22.7 20 21.3 43 4.3 6.5 67.5 0.0
22.07.19 08:38:37 1014 21.5 23 21.1 44 4.3 6.5 67.5 0.0
22.07.19 08:33:37 1014 21.4 23 21.0 44 4.7 6.1 67.5 0.0
22.07.19 08:28:36 1014 21.8 24 20.8 44 5.0 5.4 112.5 0.0
22.07.19 08:23:36 1014 22.4 23 5.0 5.4 112.5 0.0
22.07.19 08:18:36 1014 21.5 25 20.5 45 4.7 6.5 67.5 0.0
22.07.19 08:13:36 1014 20.0 28 20.3 46 3.6 7.6 135 0.0
22.07.19 08:08:37 1014 18.8 31 20.0 46 3.6 7.6 135 0.0
22.07.19 08:03:37 1014 18.1 31 19.9 47 4.0 4.7 135 0.0
22.07.19 07:58:36 1014 17.8 32 19.7 48 2.5 0.0 337.5 0.0
22.07.19 07:53:36 1014 17.7 32 19.5 48 2.5 0.0 337.5 0.0
22.07.19 07:48:36 1014 17.5 33 19.4 50 2.9 4.0 112.5 0.0
22.07.19 07:43:36 1014 17.3 33 19.3 50 3.2 1.8 157.5 0.0
22.07.19 07:38:37 1014 17.1 34 19.1 51 3.2 1.8 157.5 0.0
22.07.19 07:33:36 1013 16.8 35 18.9 52 2.5 0.0 22.5 0.0
22.07.19 07:28:36 1014 16.7 35 18.9 52 2.2 1.8 247.5 0.0
22.07.19 07:23:36 1013 16.6 35 18.7 53 2.2 1.8 247.5 0.0
22.07.19 07:18:36 1013 16.5 36 18.5 54 3.2 2.9 157.5 0.0
22.07.19 07:13:36 1013 16.3 36 18.4 54 2.9 2.9 67.5 0.0
22.07.19 07:08:36 1013 16.2 36 18.4 54 2.9 2.9 67.5 0.0
22.07.19 07:03:36 1013 16.0 37 18.2 55 2.9 7.6 112.5 0.0
22.07.19 06:58:36 1013 15.9 37 18.1 56 2.5 5.8 135 0.0
22.07.19 06:53:36 1013 15.6 38 18.1 56 2.5 5.8 135 0.0
22.07.19 06:48:36 1013 15.5 38 18.1 56 2.9 3.6 112.5 0.0
22.07.19 06:43:36 1013 15.6 38 18.0 56 2.2 1.8 67.5 0.0
22.07.19 06:38:37 1013 15.5 38 18.1 56 2.2 1.8 67.5 0.0
22.07.19 06:33:37 1013 15.7 38 18.0 56 2.2 4.3 135 0.0
22.07.19 06:28:37 1013 15.7 38 18.1 56 2.9 1.8 45 0.0
22.07.19 06:23:36 1013 15.6 38 18.1 56 2.9 1.8 45 0.0
22.07.19 06:18:36 1013 15.8 38 18.0 57 3.6 1.8 112.5 0.0
22.07.19 06:13:36 1013 15.6 38 18.0 57 3.2 8.6 112.5 0.0
22.07.19 06:08:37 1013 15.7 38 18.0 57 3.2 8.6 112.5 0.0
22.07.19 06:03:36 1013 15.8 38 18.0 57 3.2 5.0 112.5 0.0
22.07.19 05:58:36 1013 15.6 38 18.0 57 2.9 5.0 135 0.0
22.07.19 05:53:37 1013 15.6 38 17.9 57 2.9 5.0 135 0.0
22.07.19 05:48:37 1013 15.5 39 17.9 57 2.2 5.0 90 0.0
22.07.19 05:43:37 1013 15.5 39 17.9 58 2.5 3.2 112.5 0.0
22.07.19 05:38:38 1013 15.3 39 17.9 58 2.5 3.2 112.5 0.0
22.07.19 05:33:38 1013 15.3 39 17.9 58 2.9 3.2 67.5 0.0
22.07.19 05:28:37 1013 15.4 39 17.9 58 3.2 5.4 135 0.0
22.07.19 05:23:37 1013 15.6 39 17.8 59 3.2 5.4 135 0.0
22.07.19 05:18:37 1013 15.5 39 17.8 59 2.9 4.7 135 0.0
22.07.19 05:13:37 1013 15.5 39 17.7 60 3.6 8.3 180 0.0
22.07.19 05:08:38 1013 15.0 41 17.6 61 3.6 8.3 180 0.0
22.07.19 05:03:37 1013 15.1 41 17.5 62 3.2 4.3 112.5 0.0
22.07.19 04:58:37 1013 15.0 42 17.4 63 2.9 5.0 67.5 0.0
22.07.19 04:53:37 1013 14.6 43 17.3 64 2.9 5.0 67.5 0.0
22.07.19 04:48:37 1013 14.2 47 2.9 4.7 67.5 0.0
22.07.19 04:43:37 1013 13.6 48 17.2 65 2.9 2.9 112.5 0.0
22.07.19 04:38:38 1013 13.7 49 17.2 65 2.9 2.9 112.5 0.0
22.07.19 04:33:37 1013 13.7 49 17.3 65 2.9 2.9 67.5 0.0
22.07.19 04:28:37 1013 13.6 49 17.3 65 3.2 2.5 112.5 0.0
22.07.19 04:23:37 1013 13.7 50 17.3 65 3.2 2.5 112.5 0.0
22.07.19 04:18:37 1013 13.7 50 17.4 65 2.9 3.2 90 0.0
22.07.19 04:13:37 1013 13.6 50 17.5 65 3.2 3.2 112.5 0.0
22.07.19 04:08:37 1013 13.6 50 17.5 65 3.2 3.2 112.5 0.0
22.07.19 04:03:37 1013 13.6 51 17.5 66 2.9 2.9 67.5 0.0
22.07.19 03:58:37 1013 13.6 53 17.5 66 2.9 1.8 112.5 0.0
22.07.19 03:53:37 1013 13.3 55 17.6 67 2.9 1.8 112.5 0.0
22.07.19 03:48:37 1013 13.1 59 17.6 67 2.5 1.8 112.5 0.0
22.07.19 03:43:37 1013 13.0 62 17.6 67 3.2 4.0 45 0.0
22.07.19 03:38:38 1013 12.9 63 17.7 67 3.2 4.0 45 0.0
22.07.19 03:33:37 1013 12.9 64 17.7 67 2.9 3.6 67.5 0.0
22.07.19 03:28:37 1013 12.8 62 17.6 66 2.9 6.5 112.5 0.0
22.07.19 03:23:36 1014 12.8 62 17.6 66 2.9 6.5 112.5 0.0
22.07.19 03:18:36 1014 12.9 62 17.7 65 2.9 4.0 157.5 0.0
22.07.19 03:13:36 1014 12.8 62 17.7 65 2.9 2.9 135 0.0
22.07.19 03:08:38 1014 12.9 62 17.8 65 2.9 2.9 135 0.0
22.07.19 03:03:38 1013 12.9 62 18.0 64 2.9 2.9 112.5 0.0
22.07.19 02:58:37 1013 13.0 61 18.0 64 2.2 3.6 112.5 0.0
22.07.19 02:52:35 1014 13.1 60 18.1 64 2.2 3.6 112.5 0.0
22.07.19 02:47:35 1014 13.2 60 18.1 64 1.4 2.9 67.5 0.0
22.07.19 02:42:35 1013 13.0 60 18.2 64 0.7 0.0 135 0.0
22.07.19 02:37:35 1013 13.2 59 18.2 64 0.7 0.0 135 0.0
22.07.19 02:32:35 1014 18.2 64 1.1 2.2 90 0.0
22.07.19 02:27:35 1014 13.0 57 18.1 64 1.4 2.2 90 0.0
22.07.19 02:22:35 1014 13.3 56 18.2 64 1.4 2.2 90 0.0
22.07.19 02:17:35 1014 13.4 54 1.1 1.8 135 0.0
22.07.19 02:12:35 1014 13.8 53 18.1 63 0.4 0.0 135 0.0
22.07.19 02:07:35 1014 13.8 53 18.2 63 0.4 0.0 135 0.0
22.07.19 02:02:35 1014 14.1 51 0.7 2.2 112.5 0.0
22.07.19 01:57:35 1014 14.2 51 18.2 63 0.7 1.4 112.5 0.0
22.07.19 01:52:35 1014 14.2 52 18.2 63 0.7 1.4 112.5 0.0
22.07.19 01:47:35 1014 14.1 52 18.3 63 0.4 1.8 112.5 0.0
22.07.19 01:42:35 1014 14.1 53 18.3 63 0.0 1.8 247.5 0.0
22.07.19 01:37:35 1014 14.1 53 18.3 63 0.0 1.8 247.5 0.0
22.07.19 01:32:35 1014 14.1 52 18.4 63 0.0 0.0 135 0.0
22.07.19 01:27:35 1014 14.3 52 18.5 62 0.0 0.0 112.5 0.0
22.07.19 01:22:35 1014 14.3 52 18.6 61 0.0 0.0 112.5 0.0
22.07.19 01:17:35 1014 14.4 51 18.6 61 0.0 0.0 135 0.0
22.07.19 01:12:35 1014 14.4 51 18.8 60 0.0 0.0 112.5 0.0
22.07.19 01:07:35 1014 14.5 51 18.9 60 0.0 0.0 112.5 0.0
22.07.19 01:02:35 1014 14.4 51 19.0 59 0.0 0.0 112.5 0.0
22.07.19 00:57:35 1014 14.5 50 19.1 59 0.0 0.0 135 0.0
22.07.19 00:52:35 1014 14.7 50 19.2 58 0.0 0.0 135 0.0
22.07.19 00:47:35 1014 14.7 50 19.3 57 0.0 0.0 112.5 0.0
22.07.19 00:42:35 14.8 48 19.4 56 0.0 0.0 135 0.0
22.07.19 00:37:35 1014 15.1 46 19.5 56 0.0 0.0 135 0.0
22.07.19 00:32:35 1014 15.4 45 19.6 55 0.0 0.0 112.5 0.0
22.07.19 00:27:35 1014 15.3 46 19.7 55 0.0 0.0 67.5 0.0
22.07.19 00:22:36 1014 14.9 45 19.8 55 0.0 0.0 67.5 0.0
22.07.19 00:17:36 1014 15.1 43 19.9 54 0.0 0.0 112.5 0.0
22.07.19 00:12:36 1014 15.9 42 19.9 54 0.7 0.0 90 0.0
22.07.19 00:07:35 15.7 44 19.9 54 0.7 0.0 90 0.0
22.07.19 00:02:35 1014 15.5 45 19.8 55 0.7 1.8 112.5 0.0
21.07.19 23:57:35 1014 15.4 45 19.9 54 1.1 2.2 90 0.0
21.07.19 23:52:35 1014 15.2 46 19.9 55 1.1 2.2 90 0.0
21.07.19 23:47:35 1014 15.2 46 19.9 55 1.1 1.8 112.5 0.0
21.07.19 23:42:35 1014 15.3 45 20.1 53 0.7 1.8 112.5 0.0
21.07.19 23:37:35 1014 15.7 44 20.2 52 0.7 1.8 112.5 0.0
21.07.19 23:32:35 1014 15.8 43 20.4 51 1.1 2.9 112.5 0.0
21.07.19 23:27:35 1014 15.8 44 20.5 51 1.8 2.9 67.5 0.0
21.07.19 23:22:36 1014 15.8 44 20.5 51 1.8 2.9 67.5 0.0
21.07.19 23:17:36 1014 16.0 43 20.6 51 2.2 1.8 90 0.0
21.07.19 23:12:36 1014 16.0 43 20.7 50 1.4 2.2 90 0.0
21.07.19 23:07:36 1014 16.1 43 21.0 49 1.4 2.2 90 0.0
21.07.19 23:02:36 1013 16.2 43 21.1 49 1.4 2.2 112.5 0.0
21.07.19 22:57:35 1013 16.3 43 21.3 48 1.1 2.2 135 0.0
21.07.19 22:52:36 1013 16.2 43 21.3 48 1.1 2.2 135 0.0
21.07.19 22:47:36 1013 16.4 42 21.4 47 0.7 2.2 90 0.0
21.07.19 22:42:36 1013 16.5 42 21.5 47 1.4 0.0 112.5 0.0
21.07.19 22:37:35 1013 16.6 41 21.7 46 1.4 0.0 112.5 0.0
21.07.19 22:32:35 1013 16.7 41 21.7 46 1.4 2.5 90 0.0
21.07.19 22:27:35 1013 16.9 40 21.8 45 0.0 0.0 67.5 0.0
21.07.19 22:22:36 16.9 40 22.0 44 0.0 0.0 67.5 0.0
21.07.19 22:17:36 1013 17.1 39 22.1 44 0.7 0.0 112.5 0.0
21.07.19 22:12:36 1013 17.3 38 22.2 43 2.2 2.5 135 0.0
21.07.19 22:07:36 1013 17.6 36 22.5 41 2.2 2.5 135 0.0
21.07.19 22:02:36 1013 17.6 36 22.7 40 1.4 3.2 112.5 0.0
21.07.19 21:57:36 1013 18.0 34 22.8 39 1.1 2.5 45 0.0
21.07.19 21:52:36 1013 23.0 38 1.1 2.5 45 0.0
21.07.19 21:47:36 1013 18.1 33 23.3 37 0.7 0.0 112.5 0.0
21.07.19 21:42:36 1013 18.5 30 23.5 35 2.2 1.8 112.5 0.0
21.07.19 21:37:37 1013 19.3 29 23.6 35 2.2 1.8 112.5 0.0
21.07.19 21:32:36 1013 19.4 29 23.7 34 1.4 2.9 112.5 0.0
21.07.19 21:27:36 1013 19.5 28 23.8 34 1.4 1.8 135 0.0
21.07.19 21:22:36 1013 19.6 27 24.0 33 1.4 1.8 135 0.0
21.07.19 21:17:36 1013 24.1 32 1.4 0.0 112.5 0.0
21.07.19 21:12:36 1013 20.0 25 24.2 32 1.4 2.2 112.5 0.0
21.07.19 21:07:36 1013 20.1 24 24.3 31 1.4 2.2 112.5 0.0
21.07.19 21:02:36 1013 20.7 23 24.4 31 0.7 3.2 112.5 0.0
21.07.19 20:57:36 1013 21.0 22 24.5 30 0.4 0.0 112.5 0.0
21.07.19 20:52:36 1013 21.8 20 24.6 30 0.4 0.0 112.5 0.0
21.07.19 20:47:36 1013 22.3 20 24.6 30 0.4 1.8 135 0.0
21.07.19 20:42:36 1013 23.2 20 24.7 30 0.4 0.0 112.5 0.0
21.07.19 20:37:36 1013 23.9 20 24.9 28 0.4 0.0 112.5 0.0
21.07.19 20:32:36 1013 24.7 20 24.8 28 0.0 2.5 112.5 0.0
21.07.19 20:27:36 1013 25.6 20 24.9 28 0.0 0.0 67.5 0.0
21.07.19 20:22:36 1013 25.0 27 0.0 0.0 67.5 0.0
21.07.19 20:17:36 1013 25.1 27 0.0 0.0 112.5 0.0
21.07.19 20:12:36 1013 25.2 27 0.0 0.0 315 0.0
21.07.19 20:07:36 1013 25.0 20 25.2 27 0.0 0.0 315 0.0
21.07.19 20:02:36 1013 25.6 20 25.3 27 0.0 2.2 112.5 0.0
21.07.19 19:57:36 1013 26.7 20 25.3 26 0.0 0.0 337.5 0.0
21.07.19 19:52:36 1013 25.2 26 0.0 0.0 337.5 0.0
21.07.19 19:47:36 1013 25.3 25 0.0 0.0 112.5 0.0
21.07.19 19:42:36 1013 25.5 26 0.7 1.4 112.5 0.0
21.07.19 19:37:36 1013 25.6 27 0.7 1.4 112.5 0.0
21.07.19 19:32:36 1013 25.7 27 0.4 1.8 112.5 0.0
21.07.19 19:27:36 1013 25.6 26 0.4 0.0 112.5 0.0
21.07.19 19:22:36 1012 27.8 20 25.6 26 0.4 0.0 112.5 0.0
21.07.19 19:17:36 1012 26.9 20 25.4 26 0.4 0.0 112.5 0.0
21.07.19 19:12:36 1012 25.2 20 25.3 27 0.0 0.0 90 0.0
21.07.19 19:07:36 1013 24.4 20 25.3 26 0.0 0.0 90 0.0
21.07.19 19:02:36 1012 24.4 20 25.3 27 0.0 0.0 247.5 0.0
21.07.19 18:57:36 1012 25.2 20 25.4 27 0.7 0.0 112.5 0.0
21.07.19 18:52:36 1012 25.3 20 25.7 27 0.7 0.0 112.5 0.0
21.07.19 18:47:36 1012 26.9 20 25.7 26 0.4 0.0 112.5 0.0
21.07.19 18:42:36 1012 26.0 20 25.7 27 0.4 0.0 315 0.0
21.07.19 18:37:36 1012 25.1 20 25.7 27 0.4 0.0 315 0.0
21.07.19 18:32:36 1012 27.6 20 25.6 27 1.1 1.8 45 0.0
21.07.19 18:27:36 1012 28.1 20 25.6 28 1.1 2.9 112.5 0.0
21.07.19 18:22:36 1012 26.2 20 25.5 28 1.1 2.9 112.5 0.0
21.07.19 18:17:36 1012 25.7 20 25.5 28 1.1 3.6 112.5 0.0
21.07.19 18:12:36 1013 26.4 20 25.6 28 1.4 4.0 112.5 0.0
21.07.19 18:07:36 1013 27.3 20 25.6 26 1.4 4.0 112.5 0.0
21.07.19 18:02:36 1013 29.1 20 25.9 26 1.8 1.4 0 0.0
21.07.19 17:57:36 1013 29.1 20 26.0 26 1.4 4.0 45 0.0
21.07.19 17:52:37 1013 28.8 20 26.0 25 1.4 4.0 45 0.0
21.07.19 17:47:37 1013 26.7 20 1.4 3.6 67.5 0.0
21.07.19 17:42:37 1013 28.6 20 26.2 26 1.4 0.0 22.5 0.0
21.07.19 17:37:36 1013 30.4 20 26.2 26 1.4 0.0 22.5 0.0
21.07.19 17:32:36 1013 30.0 20 26.0 27 1.4 2.9 135 0.0
21.07.19 17:27:36 1013 28.3 20 25.9 26 1.4 3.2 135 0.0
21.07.19 17:22:36 1013 28.3 20 26.0 25 1.4 3.2 135 0.0
21.07.19 17:17:36 1013 27.2 20 26.0 27 1.4 1.8 135 0.0
21.07.19 17:12:36 1013 26.2 20 26.0 26 1.1 0.0 315 0.0
21.07.19 17:07:36 1013 27.4 20 26.2 26 1.1 0.0 315 0.0
21.07.19 17:02:36 1013 28.4 20 26.3 27 1.8 6.1 112.5 0.0
21.07.19 16:57:36 1013 27.0 20 26.3 27 1.4 1.8 112.5 0.0
21.07.19 16:52:37 1013 26.6 20 26.3 27 1.4 1.8 112.5 0.0
21.07.19 16:47:37 1012 31.0 20 26.2 28 2.5 0.0 180 0.0
21.07.19 16:42:37 1012 27.6 20 26.1 28 3.2 4.3 90 0.0
21.07.19 16:37:36 1012 27.5 20 25.9 28 3.2 4.3 90 0.0
21.07.19 16:32:36 1012 30.4 20 25.9 29 1.8 4.3 67.5 0.0
21.07.19 16:27:36 1012 30.9 20 25.9 29 1.1 0.0 157.5 0.0
21.07.19 16:22:36 1012 31.4 20 26.0 29 1.1 0.0 157.5 0.0
21.07.19 16:17:36 1012 31.0 20 25.9 30 1.4 2.5 315 0.0
21.07.19 16:12:36 1012 29.7 20 25.7 30 2.2 4.3 112.5 0.0
21.07.19 16:07:36 1012 29.4 20 25.4 31 2.2 4.3 112.5 0.0
21.07.19 16:02:36 1012 28.7 20 2.9 4.0 112.5 0.0
21.07.19 15:57:36 1012 28.0 20 25.3 29 2.9 7.2 247.5 0.0
21.07.19 15:52:36 1012 28.8 20 25.3 31 2.9 7.2 247.5 0.0
21.07.19 15:47:36 1012 30.4 20 25.6 30 2.9 7.2 135 0.0
21.07.19 15:42:36 1013 27.5 20 25.3 31 2.5 5.8 112.5 0.0
21.07.19 15:37:37 1013 27.6 20 25.3 31 2.5 5.8 112.5 0.0
21.07.19 15:32:37 1012 27.6 20 25.2 31 2.2 5.0 135 0.0
21.07.19 15:27:37 1012 25.1 20 24.9 30 2.9 3.6 67.5 0.0
21.07.19 15:22:36 1012 25.6 20 26.3 27 2.9 3.6 67.5 0.0
21.07.19 15:17:36 1012 27.0 20 26.4 26 2.9 5.4 180 0.0
21.07.19 15:12:36 1012 28.4 20 26.3 27 1.8 3.2 112.5 0.0
21.07.19 15:07:38 1012 26.0 20 26.1 26 1.8 3.2 112.5 0.0
21.07.19 15:02:38 1012 25.7 20 26.2 25 2.2 2.5 67.5 0.0
21.07.19 14:57:37 1012 26.1 20 26.3 27 3.6 4.0 112.5 0.0
21.07.19 14:52:36 1012 28.2 20 26.2 27 3.6 4.0 112.5 0.0
21.07.19 14:47:36 1012 28.6 20 26.3 27 3.6 4.0 90 0.0
21.07.19 14:42:36 1012 29.3 20 26.0 26 2.5 2.2 247.5 0.0
21.07.19 14:37:38 1012 25.9 20 26.0 28 2.5 2.2 247.5 0.0
21.07.19 14:32:38 1012 28.0 20 25.3 28 2.2 2.5 67.5 0.0
21.07.19 14:27:37 1012 24.7 20 2.9 7.6 45 0.0
21.07.19 14:22:37 1012 25.2 20 25.4 30 2.9 7.6 45 0.0
21.07.19 14:17:37 1012 25.1 20 25.8 28 2.5 2.9 112.5 0.0
21.07.19 14:12:37 1012 26.1 20 1.8 2.5 90 0.0
21.07.19 14:07:38 1012 26.0 20 25.5 33 1.8 2.5 90 0.0
21.07.19 14:02:38 1012 24.5 20 25.2 35 2.5 2.2 0 0.0
21.07.19 13:57:37 1012 24.2 20 25.2 34 2.5 9.0 112.5 0.0
21.07.19 13:52:37 1012 27.4 20 24.9 35 2.5 9.0 112.5 0.0
21.07.19 13:47:37 1012 25.3 20 25.0 35 2.2 2.5 135
21.07.19 13:42:37 1012 28.8 20 24.9 36 2.2 4.7 67.5 0.0
21.07.19 13:37:37 1012 27.1 20 24.4 35 2.2 4.7 67.5 0.0
21.07.19 13:32:37 1012 25.6 20 24.7 34 2.2 0.0 247.5 0.0
21.07.19 13:27:37 1012 24.6 20 25.6 32 2.9 3.2 135 0.0
21.07.19 13:22:37 1012 27.0 20 25.7 32 2.9 3.2 135 0.0
21.07.19 13:17:37 1012 28.9 20 25.5 33 3.2 3.6 112.5 0.0
21.07.19 13:12:37 1012 25.8 20 25.4 34 3.6 1.8 22.5 0.0
21.07.19 13:07:37 1012 25.6 20 24.8 36 3.6 1.8 22.5 0.0
21.07.19 13:02:37 1012 24.1 20 24.8 37 3.6 4.7 90 0.0
21.07.19 12:57:37 1012 28.4 20 24.5 38 2.2 3.6 157.5 0.0
21.07.19 12:52:37 1012 25.0 20 24.5 40 2.2 3.6 157.5 0.0
21.07.19 12:47:37 1012 27.0 20 23.8 40 1.8 3.2 315 0.0
21.07.19 12:42:37 1012 27.4 20 23.3 41 3.6 4.0 90 0.0
21.07.19 12:37:37 1012 25.6 20 23.5 42 3.6 4.0 90 0.0
21.07.19 12:32:37 1012 23.8 20 23.8 41 3.2 4.3 112.5 0.0
21.07.19 12:27:37 1012 21.9 23 23.9 43 3.6 6.1 112.5 0.0
21.07.19 12:22:37 1012 24.4 21 23.5 44 3.6 6.1 112.5 0.0
21.07.19 12:17:37 1012 24.2 23 23.4 43 2.9 2.2 315 0.0
21.07.19 12:12:37 1012 22.6 24 23.9 41 2.5 2.9 112.5 0.0
21.07.19 12:07:37 1012 24.2 21 24.2 41 2.5 2.9 112.5 0.0
21.07.19 12:02:37 1012 22.8 20 24.3 41 2.2 2.2 90 0.0
21.07.19 11:57:37 1012 25.1 20 24.5 41 1.8 0.0 135 0.0
21.07.19 11:52:37 1012 24.3 20 24.2 42 1.8 0.0 135 0.0
21.07.19 11:47:37 1012 24.0 20 24.2 42 1.8 2.5 337.5 0.0
21.07.19 11:42:37 1012 23.5 21 24.2 43 1.4 0.0 45 0.0
Index
© 2002-2012 Thomas Dreßler
Alle Rechte vorbehalten
letzte Scriptänderung 12.11.2012